Volver al catálogo

STARLINK-37387

ActivoComunicacionesVLEO
NORAD 68973·PAYLOAD·🇺🇸 United States

Lanzado May 1, 2026 desde Cape Canaveral Space Force Station

Loading…

Próximos Pases (próximas 24 horas)

TLE

ActualizadoSource: CelesTrak SupGP

Época: Sep 14, 2026, 23:18 UTC

1 68973C 26099Y   26257.97131944  .00001995  00000+0  58963-4 0  2574
2 68973  53.1574 101.2244 0001294  85.5218 200.0348 15.34381146    13

Sigue STARLINK-37387 en tiempo real con AllMySat

Download on the App Store